Powrót do katalogu

COSMOS 1285 DEB

LostHEO
NORAD 28559·DEBRIS·🇷🇺 Russia

Wystrzelony Aug 4, 1981 z Plesetsk Cosmodrome

Loading…

Następne Przeloty (najbliższe 24 godziny)

TLE

NieaktualneSource: Space-Track

Epoka: Mar 30, 2012, 07:28 UTC

1 28559U 81071T   12090.31134640  .00000055  00000-0  10000-3 0  9994
2 28559  66.9714  54.2905 5879206 127.0292 302.4814  1.98348784 64430

Śledź COSMOS 1285 DEB w czasie rzeczywistym z AllMySat

Download on the App Store